Regional Weather Roundup
Issued by NWS Midland/Odessa, TX

Skip options and go directly to product.
Home | Oldest Version | Previous Version | Current Version | All | Graphics & Text | Save Text | Print | Product List | Glossary On

Skip product version selection by date and time.   
314
ASUS44 KMAF 141810
RWRMAF
MIDLAND AREA WEATHER ROUNDUP
NATIONAL WEATHER SERVICE MIDLAND TX
1200 PM CST SUN FEB 14 2016

...IN SOUTHWEST TEXAS AND SOUTHEAST NEW MEXICO...

CITY           SKY/WX    TMP DP  RH WIND       PRES   REMARKS
ALPINE         CLOUDY    74  13   9 W7        30.08F
ANDREWS        FAIR      55  26  32 NE16G25   30.02F
ARTESIA        SUNNY     57  25  28 NE9G16    30.12S
BIG SPRING     CLOUDY    55  36  48 N9        30.01R
CARLSBAD       SUNNY     58  25  28 N15       30.09R
DRYDEN           N/A     63  47  55 MISG      29.95F
FORT STOCKTON  CLOUDY    63  35  35 N15       30.02R
GUAD PASS      SUNNY     58  13  17 E21       30.11S
HOBBS          SUNNY     55  21  26 NE16G23   30.08R
MARFA          CLOUDY    71  13  10 W8        30.07F
MIDLAND AIRPK  CLOUDY    58  35  43 NE12G18   30.01R
MIDLAND INTL   CLOUDY    57  35  43 NE15      30.00F
ODESSA         CLOUDY    56  33  42 N14       30.02S
PECOS          SUNNY     60  32  34 N16       30.03F
PRESIDIO       FAIR      64  22  20 CALM      30.02F
SEMINOLE       CLOUDY    55  25  31 NE17G23   30.06S
SNYDER           N/A     55  36  49 N10G21    29.98F
WINK           CLOUDY    60  32  34 NE13      30.02S
$$
...OTHER STATIONS IN TEXAS...

CITY           SKY/WX    TMP DP  RH WIND       PRES   REMARKS
ABILENE        CLOUDY    59  40  49 NW14      29.95S
AMARILLO       CLOUDY    49  26  41 NE8       30.05F
AUSTIN         CLOUDY    67  57  70 S13G26    29.97F
BROWNSVILLE    MOSUNNY   77  59  53 S24G30    30.00F
CORPUS CHRISTI PTSUNNY   79  57  46 S24G31    29.99F
DALLAS FTW     CLOUDY    63  53  70 S9        29.93F
DEL RIO        CLOUDY    64  53  67 S8        29.96F
EL PASO        MOSUNNY   66  12  12 N13       30.07R
HOUSTON INT    PTSUNNY   72  52  49 S16G23    30.03F
LUBBOCK        PTSUNNY   59  18  20 NE21G30   30.02S
SAN ANGELO     CLOUDY    67  49  52 SW12      29.94F
SAN ANTONIO    CLOUDY    65  57  75 S13G22    29.99F
WACO           CLOUDY    64  54  69 SW18      29.97S
WICHITA FALLS  NOT AVBL
$$
...OTHER LOCATIONS IN NEW MEXICO...

CITY           SKY/WX    TMP DP  RH WIND       PRES   REMARKS
ALAMAGORDO     SUNNY     61  12  15 CALM      30.09F
ALBUQUERQUE    MOSUNNY   57  17  21 NW5       30.12F
CANNON AFB     MOSUNNY   48  19  32 E8        30.08F
CLOVIS         MOSUNNY   46  21  36 NE9       30.10F
HOLLOMAN AFB   SUNNY     64  15  15 VRB2      30.07F
ROSWELL        SUNNY     57  21  24 N6        30.12R
RUIDOSO          N/A     54  10  17 S5        30.16F
SANTA FE       CLOUDY    51  18  27 SW12      30.10F
TRUTH OR CONSE SUNNY     61  12  14 E6        30.10F
TUCUMCARI      SUNNY     49  19  30 SE6       30.07F
$$

USA.gov is the U.S. government's official web portal to all federal, state and local government web resources and services.